|
Cosmos 1470 Rocket - Orbit
|
Hauppauge;
11:26:50
| Home | Info | Passes |
|
View from above orbital plane
|
View from above satellite
|
Ground track
|
The orbit data is extracted from the following two-line orbital elements,
1 14148U 83061B 13144.29318619 .00000403 00000-0 47216-4 0 3421
2 14148 082.5198 219.5671 0022486 180.4230 242.5756 14.82326937614786
| Epoch (UTC): | 24 May 2013 07:02:11 |
| Eccentricity: | 0.0022486 |
| inclination: | 82.5198° |
| perigee height: | 606 km |
| apogee height: | 638 km |
| right ascension of ascending node: | 219.5671° |
| argument of perigee: | 180.4230° |
| revolutions per day: | 14.82326937 |
| mean anomaly at epoch: | 242.5756° |
| orbit number at epoch: | 61478 |
The dashed part of the orbit path shows where the satellite is in the earth's shadow,
|
|